Home > Weather > Granby > Past weeks

Flag for Canada Past Weather in Granby, Quebec, Canada — Yesterday and Last 2 Weeks

Now
59 °F

Cool.


Feels Like: 59 °F
Forecast: 52 / 74 °F
Wind: 5 mph from Northeast

Location: Frelighsburg

Current Time: May 26, 2016 at 12:55:16 AM

Latest Report: May 26, 2016 at 12:00 AM


Visibility: N/A

Pressure: 30.06 "Hg

Humidity: 75%

Dew Point: 51 °F

Location of GranbyLocation

Past Weather in Granby — Graph

°F

Granby Temperature Yesterday

Maximum temperature yesterday: 76 °F (at 12:00 PM)
Minimum temperature yesterday: 57 °F (at 4:00 AM)
Average temperature yesterday: 66 °F

High & Low Weather Summary for the Past Weeks

 TemperatureHumidityPressure
High81 °F (May 24, 3:00 PM)100% (May 13, 9:00 PM)30.23 "Hg (May 13, 9:00 PM)
Low31 °F (May 16, 3:00 AM)19% (May 24, 3:00 PM)29.48 "Hg (May 14, 6:00 PM)
Average57 °F57%29.94 "Hg
* Reported May 10 11:00 PM — May 25 11:00 PM, Granby, Weather by CustomWeather, © 2016

Note: Actual official high and low records may vary slightly from our data, if they occured in-between our weather recording intervals... More about our weather records

Advertising

Granby Weather History for the Previous 24 Hours

Scroll right to see more
 ConditionsComfort  
Time TempWeatherWind HumidityBarometerVisibility
11:00 PM
Wed, May 25
63 °FMild.9 mph73%30.05 "HgN/A
10:00 PM66 °FMild.6 mph70%30.03 "HgN/A
9:00 PM66 °FMild.2 mph69%30.00 "HgN/A
8:00 PM68 °FMild.10 mph64%29.99 "HgN/A
7:00 PM74 °FMild.7 mph49%29.96 "HgN/A
6:00 PM75 °FMild.5 mph45%29.96 "HgN/A
5:00 PM73 °FMild.7 mph46%29.95 "HgN/A
4:00 PM74 °FMild.7 mph50%29.95 "HgN/A
3:00 PM73 °FMild.3 mph48%29.94 "HgN/A
2:00 PM73 °FMild.5 mph47%29.95 "HgN/A
1:00 PM71 °FMild.3 mph50%29.93 "HgN/A
12:00 PM76 °FMild.5 mph37%29.94 "HgN/A
11:00 AM72 °FMild.3 mph45%29.93 "HgN/A
10:00 AM67 °FMild.6 mph58%29.93 "HgN/A
9:00 AM66 °FMild.7 mph62%29.93 "HgN/A
8:00 AM63 °FMild.6 mph68%29.93 "HgN/A
7:00 AM60 °FCool.7 mph76%29.92 "HgN/A
6:00 AM58 °FCool.7 mph78%29.91 "HgN/A
5:00 AM58 °FCool.5 mph77%29.89 "HgN/A
4:00 AM57 °FCool.3 mph81%29.89 "HgN/A
3:00 AM58 °FCool.5 mph79%29.88 "HgN/A
2:00 AM58 °FCool.5 mph79%29.88 "HgN/A
1:00 AM60 °FCool.3 mph75%29.89 "HgN/A
12:00 AM60 °FCool.5 mph76%29.89 "HgN/A
Weather by CustomWeather, © 2016

See weather overviewHow to use our weather pages